This demonstration page uses our WeatherBlox Daily Observations layout. Learn more.

Left ArrowRight Arrow

39.92423, -83.80882

Hourly Observations for February 6, 2019

Temp ( °F °C ) Dew Point ( °F °C ) Humidity (%) Winds ( mph kmh ) Pressure ( in mb ) Visibility ( mi km ) Precip ( " mm )
12:14 am 00:14 Cloudy with Mist and Fog 39 4 39 4 100 100 ESE 12 19 30.06 1018 1 2 0.00 0.00
12:19 am 00:19 Cloudy with Mist and Fog 39 4 39 4 100 100 ESE 10 17 30.06 1018 1 1 0.00 0.00
12:50 am 00:50 Cloudy with Rain 39 4 39 4 100 100 SE 9 15 30.06 1018 1 2 0.01 0.25
12:56 am 00:56 Cloudy with Light Rain 40 4.4 40 4.4 100 100 SE 10 17 30.04 1017 2 3 0.02 0.51
1:04 am 01:04 Cloudy with Light Rain 39 4 39 4 100 100 SE 9 15 30.05 1017 4 6 0.00 0.03
1:56 am 01:56 Cloudy with Mist and Fog 42 5.6 42 5.6 100 100 SE 12 19 30.00 1016 4 6 0.02 0.51
2:35 am 02:35 Cloudy with Mist and Fog 43 6 43 6 100 100 SE 10 17 29.99 1016 2 3 0.00 0.03
2:43 am 02:43 Cloudy with Mist and Fog 43 6 43 6 100 100 SE 10 17 29.99 1016 2 2 0.00 0.03
2:56 am 02:56 Cloudy with Light Rain 43 6.1 43 6.1 100 100 SE 9 15 29.98 1015 1 2 0.00 0.03
3:30 am 03:30 Cloudy with Light Rain 43 6 43 6 100 100 SE 9 15 29.98 1015 1 1 0.00 0.03
3:56 am 03:56 Cloudy with Light Rain 43 6.1 43 6.1 100 100 ESE 8 13 29.95 1014 1 1 0.04 1.02
4:03 am 04:03 Cloudy with Rain 43 6 43 6 100 100 SE 9 15 29.96 1014 1 2 0.00 0.03
4:10 am 04:10 Cloudy with Rain 43 6 43 6 100 100 SE 9 15 29.95 1014 1 2 0.02 0.51
4:19 am 04:19 Cloudy with Rain 43 6 43 6 100 100 SE 7 11 29.96 1014 3 4 0.04 1.02
4:23 am 04:23 Cloudy with Heavy Rain 43 6 43 6 100 100 ESE 7 11 29.96 1014 3 5 0.07 1.78
4:33 am 04:33 Cloudy with Heavy Rain 45 7 45 7 100 100 SE 8 13 29.94 1014 3 4 0.22 5.59
4:51 am 04:51 Cloudy with Heavy Rain 45 7 45 7 100 100 SSE 7 11 29.94 1014 2 3 0.60 15.24
4:56 am 04:56 Cloudy with Heavy Rain 46 7.8 46 7.8 100 100 SE 6 9 29.93 1014 2 3 0.68 17.27
5:00 am 05:00 Cloudy with Light Rain 46 8 46 8 100 100 ESE 8 13 29.92 1013 3 4 0.00 0.03
5:03 am 05:03 Cloudy with Light Rain 46 8 46 8 100 100 ESE 6 9 29.92 1013 4 6 0.00 0.03
5:13 am 05:13 Cloudy with Light Rain 46 8 46 8 100 100 SE 8 13 29.92 1013 7 11 0.01 0.25
5:48 am 05:48 Cloudy with Light Rain 46 8 46 8 100 100 SSE 9 15 29.91 1013 3 5 0.02 0.51
5:56 am 05:56 Cloudy with Light Rain 46 7.8 46 7.8 100 100 SSE 8 13 29.91 1013 3 5 0.02 0.51
6:04 am 06:04 Cloudy with Mist and Fog 46 8 46 8 100 100 SSE 7 11 29.91 1013 2 3 0.00 0.03
6:30 am 06:30 Cloudy with Light Rain 50 10 50 10 100 100 S 5 7 29.91 1013 2 2 0.00 0.03
6:44 am 06:44 Cloudy with Light Rain 48 9 48 9 100 100 S 5 7 29.92 1013 1 2 0.02 0.51
6:56 am 06:56 Cloudy with Heavy Rain 49 9.4 49 9.4 100 100 Calm 29.91 1013 1 2 0.12 3.05
7:04 am 07:04 Cloudy with Heavy Rain 48 9 48 9 100 100 SSW 8 13 29.91 1013 1 2 0.12 3.05
7:22 am 07:22 Cloudy with Rain 48 9 48 9 100 100 SE 8 13 29.90 1012 1 2 0.24 6.10
7:37 am 07:37 Cloudy with Rain 48 9 48 9 100 100 SSE 7 11 29.91 1013 2 3 0.31 7.87
7:44 am 07:44 Cloudy with Rain 48 9 48 9 100 100 SSE 9 15 29.91 1013 2 2 0.34 8.64
7:56 am 07:56 Cloudy with Rain 50 10 50 10 100 100 SSW 7 11 29.93 1013 1 2 0.40 10.16
8:05 am 08:05 Cloudy with Rain 50 10 50 10 100 100 S 7 11 29.91 1013 1 2 0.12 3.05
8:13 am 08:13 Cloudy with Rain 50 10 50 10 100 100 SSE 7 11 29.89 1012 2 2 0.16 4.06
8:16 am 08:16 Cloudy with Rain 50 10 50 10 100 100 SSE 6 9 29.89 1012 1 1 0.17 4.32
8:24 am 08:24 Cloudy with Rain 50 10 50 10 100 100 S 8 13 29.89 1012 1 1 0.20 5.08
8:34 am 08:34 Cloudy with Light Rain 50 10 50 10 100 100 S 7 11 29.89 1012 1 2 0.20 5.08
8:42 am 08:42 Cloudy with Rain 52 11 52 11 100 100 SSE 6 9 29.89 1012 1 1 0.22 5.59
8:56 am 08:56 Cloudy with Light Rain 50 10 50 10 100 100 SSE 9 15 29.88 1012 0 0 0.24 6.10
9:09 am 09:09 Cloudy with Light Rain 52 11 52 11 100 100 SE 7 11 29.87 1011 1 1 0.00 0.03
9:17 am 09:17 Cloudy with Light Rain 52 11 52 11 100 100 SSE 6 9 29.88 1012 0 0 0.00 0.03
9:30 am 09:30 Cloudy with Rain 52 11 52 11 100 100 SSE 7 11 29.88 1012 1 1 0.02 0.51
9:44 am 09:44 Cloudy with Rain 50 10 50 10 100 100 SSE 5 7 29.88 1012 1 1 0.06 1.52
9:52 am 09:52 Cloudy with Rain 50 10 50 10 100 100 Calm 29.89 1012 0 0 0.08 2.03
9:56 am 09:56 Cloudy with Heavy Rain 50 10 50 10 100 100 S 5 7 29.90 1013 0 0 0.10 2.54
10:04 am 10:04 Cloudy with Rain 50 10 50 10 100 100 S 5 7 29.90 1013 1 1 0.03 0.76
10:08 am 10:08 Cloudy with Rain 50 10 50 10 100 100 SSW 3 6 29.90 1013 1 1 0.04 1.02
10:20 am 10:20 Cloudy with Rain 52 11 52 11 100 100 SSE 7 11 29.90 1012 1 2 0.07 1.78
10:29 am 10:29 Cloudy with Rain 52 11 52 11 100 100 WSW 3 6 29.91 1013 1 1 0.10 2.54
10:42 am 10:42 Cloudy with Rain 52 11 52 11 100 100 SSE 7 11 29.89 1012 1 1 0.18 4.57
10:52 am 10:52 Cloudy with Rain 50 10 50 10 100 100 S 6 9 29.90 1013 1 1 0.20 5.08
10:54 am 10:54 Cloudy with Rain 52 11 52 11 100 100 S 6 9 29.90 1012 1 1 0.20 5.08
10:56 am 10:56 Cloudy with Rain 51 10.6 51 10.6 100 100 S 5 7 29.91 1013 1 2 0.20 5.08
11:00 am 11:00 Cloudy with Rain 52 11 52 11 100 100 S 5 7 29.89 1012 3 5 0.02 0.51
11:05 am 11:05 Cloudy with Rain 52 11 52 11 100 100 Calm 29.89 1012 2 3 0.02 0.51
11:07 am 11:07 Cloudy with Rain 52 11 52 11 100 100 SE 3 6 29.89 1012 1 2 0.03 0.76
11:12 am 11:12 Cloudy with Light Rain 52 11 52 11 100 100 ESE 3 6 29.89 1012 1 1 0.03 0.76
11:17 am 11:17 Cloudy with Light Rain 52 11 52 11 100 100 E 3 6 29.88 1012 1 1 0.04 1.02
11:27 am 11:27 Cloudy with Rain 52 11 52 11 100 100 E 5 7 29.88 1012 1 1 0.06 1.52
11:45 am 11:45 Cloudy with Light Rain 52 11 52 11 100 100 Calm 29.88 1012 0 0 0.07 1.78
11:56 am 11:56 Cloudy with Light Rain 52 11.1 52 11.1 100 100 Calm 29.89 1012 0 0 0.08 2.03
12:15 pm 12:15 Cloudy with Light Rain 52 11 52 11 100 100 SSW 3 6 29.90 1012 0 0 0.00 0.03
12:39 pm 12:39 Cloudy with Light Rain 52 11 52 11 100 100 S 6 9 29.88 1012 1 1 0.02 0.51
12:51 pm 12:51 Cloudy with Light Rain 54 12 54 12 100 100 S 6 9 29.86 1011 1 1 0.03 0.76
12:56 pm 12:56 Cloudy with Light Rain 53 11.7 53 11.7 100 100 S 6 9 29.87 1012 1 1 0.03 0.76
1:06 pm 13:06 Cloudy with Fog 54 12 54 12 100 100 S 6 9 29.84 1011 1 1 0.00 0.03
1:32 pm 13:32 Cloudy with Mist and Fog 55 13 55 13 100 100 S 6 9 29.85 1011 1 2 0.00 0.03
1:35 pm 13:35 Cloudy with Mist and Fog 55 13 55 13 100 100 S 5 7 29.85 1011 3 4 0.00 0.03
1:42 pm 13:42 Cloudy 55 13 55 13 100 100 S 6 9 29.85 1011 8 13 0.00 0.03
1:56 pm 13:56 Cloudy 57 13.9 57 13.9 100 100 S 6 9 29.86 1011 10 16 0.00 0.03
2:03 pm 14:03 Cloudy 57 14 57 14 100 100 SSW 6 9 29.85 1011 10 16 0.00 0.00
2:56 pm 14:56 Cloudy with Mist and Fog 56 13.3 56 13.3 100 100 WSW 6 9 29.87 1012 5 8 0.00 0.00
3:27 pm 15:27 Cloudy 55 13 55 13 100 100 WSW 7 11 29.87 1011 7 11 0.00 0.00
3:36 pm 15:36 Cloudy 55 13 55 13 100 100 SW 5 7 29.87 1011 7 11 0.00 0.00
3:56 pm 15:56 Cloudy 56 13.3 56 13.3 100 100 W 6 9 29.90 1012 7 11 0.00 0.00
4:56 pm 16:56 Cloudy 55 12.8 55 12.8 100 100 WNW 6 9 29.91 1013 10 16 0.00 0.00
5:49 pm 17:49 Cloudy with Mist and Fog 54 12 54 12 100 100 WNW 5 7 29.92 1013 4 6 0.00 0.00
5:56 pm 17:56 Cloudy with Mist and Fog 53 11.7 53 11.7 100 100 WNW 3 6 29.93 1013 4 6 0.00 0.00
6:04 pm 18:04 Mostly Cloudy with Mist and Fog 54 12 54 12 100 100 Calm 29.91 1013 1 2 0.00 0.00
6:06 pm 18:06 Mostly Cloudy with Fog 52 11 52 11 100 100 Calm 29.92 1013 1 1 0.00 0.00
6:14 pm 18:14 Mostly Cloudy with Fog 52 11 52 11 100 100 NNW 3 6 29.93 1013 0 0 0.00 0.00
6:26 pm 18:26 Cloudy with Fog 52 11 52 11 100 100 WNW 8 13 29.95 1014 1 1 0.00 0.00
6:28 pm 18:28 Cloudy with Mist and Fog 52 11 52 11 100 100 WNW 7 11 29.95 1014 1 2 0.00 0.00
6:33 pm 18:33 Cloudy with Mist and Fog 52 11 52 11 100 100 WNW 7 11 29.95 1014 2 3 0.00 0.00
6:37 pm 18:37 Cloudy with Mist and Fog 52 11 52 11 100 100 NW 6 9 29.95 1014 4 6 0.00 0.00
6:54 pm 18:54 Cloudy with Mist and Fog 52 11 52 11 100 100 NW 3 6 29.94 1014 3 4 0.00 0.00
6:56 pm 18:56 Mostly Cloudy with Mist and Fog 52 11.1 52 11.1 100 100 NW 3 6 29.94 1014 2 3 0.00 0.00
7:03 pm 19:03 Mostly Cloudy with Mist and Fog 52 11 52 11 100 100 Calm 29.95 1014 1 2 0.00 0.00
7:07 pm 19:07 Mostly Cloudy with Mist and Fog 52 11 52 11 100 100 WNW 3 6 29.95 1014 1 1 0.00 0.00
7:21 pm 19:21 Mostly Cloudy with Fog 50 10 50 10 100 100 WSW 3 6 29.96 1015 0 0 0.00 0.00
7:33 pm 19:33 Mostly Cloudy with Fog 50 10 50 10 100 100 WNW 6 9 29.96 1015 0 0 0.00 0.00
7:48 pm 19:48 Mostly Cloudy with Mist and Fog 50 10 50 10 100 100 NW 8 13 29.97 1015 1 1 0.00 0.00
7:56 pm 19:56 Cloudy with Mist and Fog 51 10.6 51 10.6 100 100 Calm 29.96 1015 1 1 0.00 0.00
8:05 pm 20:05 Cloudy with Fog 52 11 52 11 100 100 Calm 29.94 1014 1 1 0.00 0.00
8:17 pm 20:17 Cloudy with Fog 50 10 50 10 100 100 Calm 29.94 1014 0 0 0.00 0.00
8:56 pm 20:56 Cloudy with Fog 51 10.6 51 10.6 100 100 NW 6 9 29.97 1015 0 0 0.00 0.00
9:53 pm 21:53 Cloudy with Fog 48 9 48 9 100 100 N 6 9 30.00 1016 1 1 0.00 0.00
9:56 pm 21:56 Cloudy with Fog 48 8.9 48 8.9 100 100 NNW 5 7 30.00 1016 1 1 0.00 0.00
10:08 pm 22:08 Cloudy with Fog 48 9 48 9 100 100 NNW 6 9 30.00 1016 0 0 0.00 0.00
10:26 pm 22:26 Cloudy with Fog 46 8 46 8 100 100 NNW 5 7 30.00 1016 1 1 0.00 0.00

Powered by AerisWeather